星链-36113(STARLINK-36113)

导读

STARLINK-36113是美国SpaceX公司星链(Starlink)星座中的低轨通信卫星,计划于2025年12月8日发射。作为全球规模最大低轨卫星互联网的一员,它运行于近地轨道,搭载先进激光通信和相控阵天线技术,旨在提供全球覆盖的高速低延迟宽带服务,填补偏远地区网络覆盖空白,服务远程教育、应急通信等场景,推动全球互联基础设施建设。

基本信息
目录编号:
66982
目录名称:
STARLINK-36113
国际标识:
2025-288Z
轨道中心:
EARTH
卫星名称:
星链-36113
卫星全名:
星链-36113(STARLINK-36113)
卫星状态:
在轨 (已飞行277 天)
发射日期:
2025-12-08 UTC
国别 :
美国 (US)
星等 :
--
该卫星已列入 空间交会检测服务 Space Conjunction Data Service (SCDS) ,当前飞行风险评估等级: 高风险
轨道信息
数据来源 国际轨道数据
星历时间: 2026-09-11T20:44:41+0800
8小时前
查看轨道信息
半长轴: 6861.125km
偏心率: 0.0001505
轨道倾角: 43.000°
近地点辐角 262.743°
升交点赤经 53.549°
平近点角 97.325°
近地点: 481.955km
远地点: 484.021km
周期: 94.265分钟
每日圈数: 15.276007
详细信息
固有亮度:
5
最大亮度:
2.5
卫星平台:
Starlink V1.0
覆盖范围:
全球
运营商:
太空探索技术公司
运营商所在国:
美国
制造商(研发单位):
太空探索技术公司
制造商所在国:
美国
使用方式:
暂无
卫星简介
Starlink 计划是 SpaceX 推出的全球卫星互联网项目,通过发射低轨道卫星,为全球尤其是偏远地区提供高速、低延迟的互联网服务。自 2019 年起,Starlink 已部署数千颗卫星,旨在缩小全球数字鸿沟,推动互联网普及。该项目还为军事、航空等行业提供通信支持,带来广泛经济效益。
2D轨道图
3D轨道图
轨道高度分析图
轨道倾角分析图
轨道综合分析图
查看轨道综合分析图
交会数据列表
事件ID 空间交会对象 最接近时刻(TCA) 交会距离 交会风险概率(CRP) 交会风险指数(CRI) 操作
CDM_260913-013106-381506-698221
2026-09-13T
01:31:36+0000
0.158 km
中距离
8.594735E-4 高风险 0.94
CDM_260913-105706-390106-698221
2026-09-13T
10:57:10+0000
0.501 km
远距离
1.629246E-4 高风险 0.79
CDM_260913-032305-713206-698222
2026-09-13T
03:23:44+0000
0.477 km
远距离
1.600196E-4 高风险 0.79
CDM_260913-061505-642406-698222
2026-09-13T
06:15:20+0000
0.509 km
远距离
1.577428E-4 高风险 0.79
CDM_260912-234106-698206-800321
2026-09-12T
23:41:51+0000
0.369 km
远距离
1.479409E-4 高风险 0.78
CDM_260913-033706-698206-800321
2026-09-13T
03:37:14+0000
0.473 km
远距离
8.090551E-5 中风险 0.73
CDM_260912-235406-164106-698221
2026-09-12T
23:54:33+0000
0.652 km
远距离
7.812767E-5 中风险 0.73
CDM_260912-062906-386106-698221
2026-09-12T
06:29:09+0000
0.774 km
远距离
2.923587E-5 中风险 0.64
CDM_260914-032506-381506-698221
2026-09-14T
03:25:04+0000
0.967 km
远距离
2.316498E-5 中风险 0.62
CDM_260912-081505-858906-698222
2026-09-12T
08:15:27+0000
1.148 km
极远距离
1.270836E-5 中风险 0.57
与全量物体交会距离演化趋势
与全量物体交会风险概率演化趋势